Theta_e
278 279 279 278 278 278 272 269 270 273 270 277 272 270 271 276 279 279 280 281 281 281 282 281 281 282 283 284 284 284 284 284 285 286 288 289 290 293 293 294 295 292 291 290
277 280 276 278 279 278 279 271 271 273 273 279 278 276 276 278 279 279 280 281 283 283 283 281 282 282 284 283 283 284 283 284 286 286 288 290 292 291 292 293 293 292 289 288
275 278 277 273 278 278 277 277 272 270 277 276 276 279 273 273 279 279 281 281 282 283 281 281 282 283 282 282 283 283 283 284 285 286 287 291 291 291 291 290 292 289 286 286
275 276 267 279 282 281 277 280 277 277 275 273 275 278 277 278 279 281 282 282 283 281 280 281 282 282 282 283 283 282 282 283 284 286 286 289 290 288 288 289 290 286 284 284
269 271 277 280 280 277 276 276 280 278 279 279 279 278 277 282 282 282 281 282 280 280 280 281 282 282 281 281 281 282 282 282 283 285 286 289 288 285 286 285 285 284 284 283
274 271 267 279 280 281 280 271 280 280 279 279 277 270 274 280 282 281 281 281 281 280 281 281 281 281 280 280 280 280 281 282 283 285 286 287 285 283 282 283 284 284 283 283
273 269 274 282 281 282 274 278 282 280 280 278 275 277 280 282 280 281 281 281 281 281 280 280 280 280 279 279 279 281 282 283 284 284 286 287 283 282 281 281 281 281 281 281
274 269 269 283 280 277 283 281 281 281 280 280 281 282 281 280 280 280 280 280 280 280 280 280 280 279 278 278 280 281 282 282 283 283 287 285 282 281 281 279 279 279 279 279
277 277 283 282 284 284 284 283 282 281 282 282 281 281 281 280 279 279 279 278 279 279 279 279 279 279 278 279 281 281 281 281 281 284 284 283 281 280 280 279 278 278 278 278
282 284 285 286 284 284 284 284 284 284 284 283 281 281 280 279 279 278 278 278 278 278 277 277 278 279 279 280 281 281 280 280 282 283 283 282 282 282 279 278 277 278 277 276
281 285 286 287 287 286 285 286 285 285 284 283 282 281 280 279 279 278 278 278 278 277 277 277 278 279 279 280 280 279 280 280 281 281 283 283 282 281 281 280 279 276 276 277
282 286 286 285 286 288 287 286 285 284 283 283 283 282 281 280 280 279 278 278 277 277 277 277 278 278 279 280 280 279 280 279 280 280 280 280 282 282 284 283 283 282 282 280
286 288 287 288 288 286 285 286 287 285 285 283 283 282 282 280 280 280 279 278 277 277 277 278 278 278 279 280 280 280 278 279 279 280 279 279 279 281 279 282 283 282 281 282
288 287 287 287 287 286 285 286 289 285 285 284 283 282 282 281 280 280 279 279 279 278 278 278 278 278 279 279 280 279 279 279 278 278 277 278 276 278 279 279 280 277 280 279
290 291 291 288 285 285 285 285 284 282 283 282 282 282 282 280 280 280 281 280 279 279 279 279 279 279 280 280 280 278 279 277 277 277 277 277 277 277 278 278 277 276 277 276
289 290 290 288 288 285 284 283 283 282 282 282 282 281 282 283 282 281 281 280 278 277 279 279 279 280 280 280 279 278 278 278 278 277 276 276 276 276 276 276 275 275 275 275
286 286 286 286 287 286 284 285 285 284 283 282 283 283 282 281 281 280 280 280 280 280 280 280 280 281 280 280 279 278 277 278 277 278 276 276 276 276 276 275 274 274 275 277
291 291 290 288 287 285 284 284 284 283 283 284 284 282 281 281 281 281 281 281 280 280 280 281 281 281 281 280 279 278 277 278 278 279 278 277 277 277 276 275 275 275 275 276
291 291 291 290 288 287 287 286 285 286 285 284 282 281 283 283 282 283 283 281 279 279 280 281 281 280 280 280 279 278 277 277 278 278 278 277 277 277 276 276 276 276 276 275
290 292 291 291 290 289 289 287 287 285 285 283 282 279 280 282 282 282 282 281 282 282 284 282 281 280 280 280 280 278 277 277 277 278 278 277 277 277 277 276 277 277 276 276
290 290 290 290 289 289 288 289 286 285 286 283 282 282 282 283 282 282 281 280 283 284 284 283 281 280 280 280 279 279 278 277 277 277 277 277 277 277 277 277 277 277 276 276
290 289 290 289 288 288 289 288 286 286 285 284 282 283 281 282 282 282 284 284 286 284 283 283 281 281 281 280 279 279 278 278 277 277 277 277 278 277 277 277 276 277 276 275
289 289 289 288 287 287 288 287 287 286 285 285 285 285 285 285 286 283 281 284 284 284 283 283 282 282 281 280 279 279 278 278 278 277 277 278 278 278 277 277 277 276 276 275
291 291 289 290 288 287 287 288 287 286 286 285 285 286 286 285 285 285 287 288 283 283 283 283 282 282 281 280 280 279 279 279 278 278 278 278 278 278 278 277 276 276 276 274
291 291 291 290 288 288 287 288 286 286 286 285 284 284 284 286 285 288 284 285 285 282 283 283 282 282 281 281 280 279 279 279 279 279 278 278 278 278 278 277 277 276 275 275
292 290 289 289 288 285 285 286 284 286 285 285 285 285 285 284 284 284 285 284 284 282 282 283 282 282 281 281 280 280 280 280 279 279 279 278 278 278 278 277 277 276 275 274
290 287 288 287 288 288 287 283 280 285 284 284 285 287 285 285 283 282 281 282 282 283 282 282 283 281 282 281 280 281 281 280 280 279 279 278 278 278 278 277 277 276 275 274
Wind_Speed
7 12 7 12 14 8 10 8 7 10 8 20 8 8 7 7 5 6 8 6 6 5 4 2 3 2 2 2 4 5 5 6 6 6 6 6 7 7 8 8 8 8 9 9
7 5 4 8 11 10 12 4 11 15 21 10 6 4 4 7 6 7 7 7 7 6 4 3 5 4 2 2 4 4 5 6 6 6 5 8 7 7 7 8 9 10 9 9
6 5 7 7 8 6 4 5 7 6 12 2 5 7 6 6 6 6 7 7 7 6 5 5 6 5 3 2 2 5 5 6 6 6 4 6 5 7 8 8 5 8 8 8
5 7 4 5 2 4 8 8 10 9 8 7 7 5 5 6 6 7 6 7 6 5 4 6 5 4 3 3 3 4 5 6 6 5 5 5 4 4 4 5 7 6 6 8
1 2 11 6 3 6 6 9 7 10 9 5 1 1 7 7 7 7 6 6 6 5 5 6 6 5 4 1 2 2 5 5 6 5 5 4 5 5 4 5 5 5 6 7
1 1 6 5 2 5 4 6 7 8 8 5 5 1 6 4 5 6 6 4 5 5 5 6 6 4 3 1 2 1 4 5 5 4 4 4 5 5 4 4 5 4 6 7
3 4 12 8 5 4 3 9 7 8 8 8 6 8 4 4 5 5 5 6 5 6 7 7 6 5 3 3 3 2 3 4 4 3 4 4 4 4 4 5 4 5 5 6
3 2 12 9 5 9 9 2 5 8 8 8 8 5 6 7 7 7 6 6 6 6 6 6 6 4 5 5 2 2 3 5 3 3 4 4 5 4 5 5 5 5 5 5
13 13 6 11 8 12 5 5 6 8 8 9 8 8 8 8 8 7 8 6 5 6 6 5 4 6 6 5 3 1 3 4 3 3 4 4 4 4 3 4 4 4 3 4
2 6 15 15 14 6 8 9 6 8 10 10 9 9 9 7 7 7 7 7 6 7 6 5 5 5 4 4 3 2 2 2 3 5 4 3 2 2 3 3 3 3 3 3
8 14 10 11 9 10 9 9 7 8 9 14 10 10 10 8 8 8 8 6 6 7 6 7 6 6 6 6 5 4 4 2 3 4 4 4 3 2 3 2 2 1 0 1
12 8 5 6 5 6 9 10 12 10 7 9 13 12 10 9 9 9 9 7 7 7 7 7 7 7 7 5 5 4 4 3 3 3 3 3 3 3 2 6 6 5 2 3
6 5 7 5 5 6 8 8 8 10 13 10 10 9 11 8 9 11 8 9 9 10 9 7 8 7 6 6 6 5 4 4 3 2 3 3 3 3 4 4 6 4 4 4
8 1 9 7 8 9 7 6 5 6 8 10 11 7 8 9 7 10 12 13 10 9 9 8 9 9 8 7 6 6 6 6 5 4 3 3 4 4 4 5 7 3 1 2
11 13 12 2 3 5 5 4 6 8 8 7 7 11 10 10 11 14 11 10 10 10 10 10 10 10 8 7 6 6 5 4 4 4 4 4 4 4 4 4 4 4 2 2
5 11 8 10 8 8 8 8 8 9 8 7 10 11 14 14 12 11 11 11 11 13 12 12 12 12 11 9 8 6 6 7 5 4 3 4 4 4 4 4 4 4 4 4
6 8 6 8 12 10 14 13 14 12 10 10 16 13 11 11 9 10 11 12 14 14 14 14 15 11 12 12 11 7 6 6 6 6 5 5 5 6 5 5 5 5 5 5
14 10 9 8 7 8 9 10 9 9 11 15 9 9 11 12 17 15 15 12 12 12 13 15 14 13 13 14 12 8 7 8 6 7 7 7 7 7 6 7 7 6 5 5
15 16 13 11 10 8 8 10 12 13 9 9 8 13 16 15 16 16 11 12 14 16 18 16 16 16 15 16 14 10 9 10 10 8 9 9 8 8 7 7 8 8 7 6
11 12 10 12 8 10 11 9 8 8 10 8 8 6 10 14 14 14 12 18 20 17 17 15 16 17 17 17 18 11 12 12 12 11 9 9 10 10 9 10 9 8 7 7
11 10 10 9 9 8 10 9 7 9 11 8 11 13 16 17 11 12 10 12 22 18 16 15 16 14 12 14 14 13 13 13 13 12 12 11 11 11 10 10 9 9 8 7
6 7 9 9 8 8 9 8 7 7 8 8 10 10 9 13 10 12 17 16 13 12 12 12 13 20 16 22 14 14 15 15 14 12 12 12 12 11 11 10 10 8 8 7
5 6 6 6 7 7 5 6 7 8 8 8 9 10 11 12 8 8 10 15 13 12 11 13 18 21 24 15 14 16 17 17 16 15 14 13 12 11 11 11 9 9 8 8
3 3 4 5 3 3 6 7 5 6 8 8 9 10 9 8 8 9 13 13 9 14 13 13 16 20 21 14 14 15 15 15 15 14 13 15 12 11 11 11 10 9 8 8
2 3 3 5 5 6 6 6 5 6 7 7 8 7 10 9 9 9 6 10 12 9 11 15 18 19 14 14 13 13 13 13 13 12 12 12 12 12 12 11 11 10 9 9
0 2 3 5 5 4 4 2 4 5 4 6 6 6 6 6 7 9 8 8 9 8 10 9 10 12 13 14 15 15 13 13 15 14 15 14 13 12 12 12 11 10 10 9
3 2 1 3 3 4 4 3 3 6 5 5 7 6 6 7 6 7 7 7 7 9 10 10 9 12 12 13 14 14 13 12 15 13 12 13 12 12 13 12 11 10 9 9
Wind_Direction
252 261 255 262 268 221 194 203 202 274 227 285 264 249 250 244 266 273 267 270 257 259 289 268 139 152 87 357 343 335 338 335 325 323 332 346 355 6 354 15 20 63 35 26
287 284 217 267 253 236 232 196 254 269 281 265 252 219 256 249 255 255 260 253 252 257 248 174 176 166 157 319 333 338 330 328 329 339 353 1 8 18 2 27 35 45 30 16
268 324 306 303 243 187 208 192 172 211 253 227 252 236 241 257 238 249 267 267 260 253 196 187 176 171 193 234 314 347 339 338 343 342 3 23 13 22 17 7 48 56 27 16
280 333 348 245 233 178 203 245 212 274 261 212 233 244 258 229 233 259 268 263 251 198 172 175 171 192 212 243 326 343 338 345 343 348 10 19 32 19 14 11 37 46 25 12
177 246 290 298 183 164 163 280 215 223 259 238 220 35 282 227 206 229 227 221 206 189 179 172 180 194 203 320 306 343 331 341 334 349 23 47 12 20 16 23 29 44 30 11
122 315 251 243 173 139 117 289 219 195 236 209 117 9 257 226 199 195 191 199 195 185 151 159 194 196 181 122 142 322 336 320 322 2 43 53 52 44 32 36 36 32 22 15
144 249 281 240 169 160 101 242 193 193 205 176 188 202 212 182 179 178 197 192 162 161 170 186 189 190 157 166 183 272 305 334 346 20 108 71 59 47 49 48 49 37 23 5
156 194 280 155 96 172 215 198 198 198 203 195 216 199 197 192 185 177 172 157 160 159 186 199 204 173 167 170 206 278 8 357 34 14 109 109 88 54 47 53 51 32 20 5
184 215 225 199 207 215 175 187 204 196 208 200 194 202 186 192 188 186 179 173 172 169 187 217 222 179 168 200 197 119 48 9 48 100 120 121 104 92 71 55 49 31 31 16
156 244 230 223 239 240 198 220 209 212 192 178 190 186 192 187 185 182 182 179 170 172 192 211 201 185 185 185 186 167 135 62 82 137 142 132 108 107 92 71 49 37 41 29
262 280 269 255 230 231 220 228 218 205 194 195 183 195 188 189 190 189 183 183 180 184 192 192 182 187 192 194 186 185 185 172 124 141 169 189 204 176 129 127 131 95 43 58
227 219 196 240 219 195 209 217 216 193 198 200 191 191 181 196 194 185 188 184 188 194 187 194 182 190 198 207 200 195 203 199 186 162 175 197 212 218 178 152 126 80 107 131
230 207 207 244 241 215 210 221 217 199 205 189 198 187 186 188 193 191 190 190 193 193 194 185 189 195 199 197 193 208 222 225 228 212 187 194 215 196 177 194 177 82 17 58
229 268 280 191 237 213 211 221 207 209 204 194 190 180 185 193 173 191 198 200 194 190 194 190 191 201 204 201 200 206 203 210 200 222 225 207 217 208 177 179 197 193 245 28
229 214 240 288 258 244 202 157 187 204 197 191 186 192 186 187 196 205 203 195 195 194 198 193 196 206 193 197 206 217 214 224 217 210 218 218 195 187 172 177 190 203 194 253
215 214 226 233 234 224 199 208 213 217 200 200 198 199 203 206 207 205 199 184 183 207 204 202 208 201 190 194 199 210 217 218 211 224 223 193 192 196 186 188 188 197 201 212
223 248 210 235 222 211 209 213 214 214 205 199 213 205 195 201 207 210 209 199 204 210 205 201 212 195 192 195 200 203 205 220 209 209 220 208 202 203 201 194 198 203 209 203
219 228 202 204 200 213 230 225 221 215 212 221 211 185 199 199 214 216 214 203 208 219 211 212 206 196 197 198 199 200 205 213 218 216 204 214 208 207 201 199 204 205 208 209
220 229 224 221 213 204 220 228 224 227 229 208 176 204 212 217 221 224 209 199 209 218 226 213 201 193 199 200 195 197 201 209 216 217 214 207 212 208 204 206 208 208 206 202
220 224 218 225 207 204 231 232 218 218 231 197 209 206 217 228 220 221 203 208 216 218 223 205 197 204 207 201 194 200 203 209 216 219 217 212 211 211 208 207 206 208 205 209
218 218 220 218 226 221 221 239 201 219 235 193 198 221 225 238 223 218 212 222 237 224 216 201 196 206 204 203 196 201 207 212 212 216 219 219 217 214 212 210 211 209 205 206
215 211 224 222 220 245 235 228 210 233 232 213 216 230 226 240 231 215 223 230 246 208 208 210 207 205 202 194 200 207 207 212 215 216 218 218 218 215 215 210 211 209 205 202
233 234 241 236 228 239 283 237 228 226 238 240 237 243 236 243 243 224 241 236 237 226 206 213 217 211 205 198 202 205 211 207 214 217 217 216 216 216 213 211 210 206 204 202
240 248 247 255 229 225 284 283 261 237 222 235 229 233 239 255 255 232 246 256 210 216 215 219 217 212 204 208 209 208 213 218 216 213 218 214 213 213 213 213 207 202 203 201
322 287 301 333 319 275 275 277 296 286 280 268 258 246 236 236 230 262 228 242 240 213 223 223 217 211 205 210 213 217 216 224 220 211 216 218 216 209 209 206 205 200 199 200
65 282 257 249 242 264 263 262 245 266 269 270 267 255 254 240 236 245 250 236 232 219 225 224 215 212 213 212 216 218 217 217 220 215 214 218 216 214 209 205 202 198 197 197
246 216 264 300 268 267 270 245 250 272 253 252 266 268 260 263 248 246 247 242 227 226 225 226 220 214 214 213 213 222 222 219 215 212 211 214 217 214 211 206 203 197 193 192